28/04/2024 08:00:00,2.554
28/04/2024 08:15:00,2.554
28/04/2024 08:30:00,2.553
28/04/2024 08:45:00,2.554
28/04/2024 09:00:00,2.554
28/04/2024 09:15:00,2.553
28/04/2024 09:30:00,2.554
28/04/2024 09:45:00,2.554
28/04/2024 10:00:00,2.555
28/04/2024 10:15:00,2.554
28/04/2024 10:30:00,2.556
28/04/2024 10:45:00,2.555
28/04/2024 11:00:00,2.555
28/04/2024 11:15:00,2.555
28/04/2024 11:30:00,2.555
28/04/2024 11:45:00,2.556
28/04/2024 12:00:00,2.557
28/04/2024 12:15:00,2.556
28/04/2024 12:30:00,2.556
28/04/2024 12:45:00,2.558
28/04/2024 13:00:00,2.557
28/04/2024 13:15:00,2.558
28/04/2024 13:30:00,2.559
28/04/2024 13:45:00,2.56
28/04/2024 14:00:00,2.562
28/04/2024 14:15:00,2.564
28/04/2024 14:30:00,2.564
28/04/2024 14:45:00,2.564
28/04/2024 15:00:00,2.565
28/04/2024 15:15:00,2.565
28/04/2024 15:30:00,2.567
28/04/2024 15:45:00,2.565
28/04/2024 16:00:00,2.569
28/04/2024 16:15:00,2.569
28/04/2024 16:30:00,2.571
28/04/2024 16:45:00,2.572
28/04/2024 17:00:00,2.572
28/04/2024 17:15:00,2.574
28/04/2024 17:30:00,2.574
28/04/2024 17:45:00,2.576
28/04/2024 18:00:00,2.579
28/04/2024 18:15:00,2.579
28/04/2024 18:30:00,2.581
28/04/2024 18:45:00,2.581
28/04/2024 19:00:00,2.585
28/04/2024 19:15:00,2.586
28/04/2024 19:30:00,2.588
28/04/2024 19:45:00,2.59
28/04/2024 20:00:00,2.59
28/04/2024 20:15:00,2.593
28/04/2024 20:30:00,2.595
28/04/2024 20:45:00,2.596
28/04/2024 21:00:00,2.598
28/04/2024 21:15:00,2.601
28/04/2024 21:30:00,2.601
28/04/2024 21:45:00,2.602
28/04/2024 22:00:00,2.602
28/04/2024 22:15:00,2.603
28/04/2024 22:30:00,2.604
28/04/2024 22:45:00,2.606
28/04/2024 23:00:00,2.604
28/04/2024 23:15:00,2.605
28/04/2024 23:30:00,2.606
28/04/2024 23:45:00,2.605
29/04/2024 00:00:00,2.607
29/04/2024 00:15:00,2.607
29/04/2024 00:30:00,2.605
29/04/2024 00:45:00,2.606
29/04/2024 01:00:00,2.604
29/04/2024 01:15:00,2.604
29/04/2024 01:30:00,2.605
29/04/2024 01:45:00,2.604
29/04/2024 02:00:00,2.604
29/04/2024 02:15:00,2.604
29/04/2024 02:30:00,2.602
29/04/2024 02:45:00,2.602
29/04/2024 03:00:00,2.602
29/04/2024 03:15:00,2.602
29/04/2024 03:30:00,2.6
29/04/2024 03:45:00,2.6
29/04/2024 04:00:00,2.601
29/04/2024 04:15:00,2.601
29/04/2024 04:30:00,2.6
29/04/2024 04:45:00,2.6
29/04/2024 05:00:00,2.6
29/04/2024 05:15:00,2.6
29/04/2024 05:30:00,2.6
29/04/2024 05:45:00,2.6
29/04/2024 06:00:00,2.6
29/04/2024 06:15:00,2.6
29/04/2024 06:30:00,2.599
29/04/2024 06:45:00,2.599
29/04/2024 07:00:00,2.6
29/04/2024 07:15:00,2.599
29/04/2024 07:30:00,2.599
29/04/2024 07:45:00,2.598
29/04/2024 08:00:00,2.601
29/04/2024 08:15:00,2.598
29/04/2024 08:30:00,2.597
29/04/2024 08:45:00,2.598
29/04/2024 09:00:00,2.601
29/04/2024 09:15:00,2.598
29/04/2024 09:30:00,2.6
29/04/2024 09:45:00,2.599
29/04/2024 10:00:00,2.599
29/04/2024 10:15:00,2.6
29/04/2024 10:30:00,2.598
29/04/2024 10:45:00,2.597
29/04/2024 11:00:00,2.598
29/04/2024 11:15:00,2.598
29/04/2024 11:30:00,2.596
29/04/2024 11:45:00,2.598
29/04/2024 12:00:00,2.596
29/04/2024 12:15:00,2.598
29/04/2024 12:30:00,2.597
29/04/2024 12:45:00,2.599
29/04/2024 13:00:00,2.598
29/04/2024 13:15:00,2.599
29/04/2024 13:30:00,2.598
29/04/2024 13:45:00,2.598
29/04/2024 14:00:00,2.598
29/04/2024 14:15:00,2.598
29/04/2024 14:30:00,2.597
29/04/2024 14:45:00,2.597
29/04/2024 15:00:00,2.598
29/04/2024 15:15:00,2.595
29/04/2024 15:30:00,2.596
29/04/2024 15:45:00,2.596
29/04/2024 16:00:00,2.597
29/04/2024 16:15:00,2.595
29/04/2024 16:30:00,2.596
29/04/2024 16:45:00,2.594
29/04/2024 17:00:00,2.597
29/04/2024 17:15:00,2.595
29/04/2024 17:30:00,2.595
29/04/2024 17:45:00,2.594
29/04/2024 18:00:00,2.593
29/04/2024 18:15:00,2.594
29/04/2024 18:30:00,2.593
29/04/2024 18:45:00,2.591
29/04/2024 19:00:00,2.591
29/04/2024 19:15:00,2.59
29/04/2024 19:30:00,2.592
29/04/2024 19:45:00,2.592
29/04/2024 20:00:00,2.589
29/04/2024 20:15:00,2.591
29/04/2024 20:30:00,2.59
29/04/2024 20:45:00,2.591
29/04/2024 21:00:00,2.589
29/04/2024 21:15:00,2.589
29/04/2024 21:30:00,2.587
29/04/2024 21:45:00,2.587
29/04/2024 22:00:00,2.588
29/04/2024 22:15:00,2.587
29/04/2024 22:30:00,2.587
29/04/2024 22:45:00,2.586
29/04/2024 23:00:00,2.587
29/04/2024 23:15:00,2.585
29/04/2024 23:30:00,2.584
29/04/2024 23:45:00,2.585
30/04/2024 00:00:00,2.585
30/04/2024 00:15:00,2.584
30/04/2024 00:30:00,2.584
30/04/2024 00:45:00,2.585
30/04/2024 01:00:00,2.583
30/04/2024 01:15:00,2.582
30/04/2024 01:30:00,2.584
30/04/2024 01:45:00,2.582
30/04/2024 02:00:00,2.582
30/04/2024 02:15:00,2.58
30/04/2024 02:30:00,2.582
30/04/2024 02:45:00,2.579
30/04/2024 03:00:00,2.582
30/04/2024 03:15:00,2.58
30/04/2024 03:30:00,2.58
30/04/2024 03:45:00,2.579
30/04/2024 04:00:00,2.58
30/04/2024 04:15:00,2.581
30/04/2024 04:30:00,2.58
30/04/2024 04:45:00,2.58
30/04/2024 05:00:00,2.578
30/04/2024 05:15:00,2.581
30/04/2024 05:30:00,2.579
30/04/2024 05:45:00,2.579
30/04/2024 06:00:00,2.578
30/04/2024 06:15:00,2.579
30/04/2024 06:30:00,2.577
30/04/2024 06:45:00,2.577
30/04/2024 07:00:00,2.579
30/04/2024 07:15:00,2.579
30/04/2024 07:30:00,2.578
30/04/2024 07:45:00,2.577
30/04/2024 08:00:00,2.578
30/04/2024 08:15:00,2.578
30/04/2024 08:30:00,2.576
30/04/2024 08:45:00,2.576
30/04/2024 09:00:00,2.575
30/04/2024 09:15:00,2.576
30/04/2024 09:30:00,2.576
30/04/2024 09:45:00,2.577
30/04/2024 10:00:00,2.576
30/04/2024 10:15:00,2.572
30/04/2024 10:30:00,2.573
30/04/2024 10:45:00,2.575
30/04/2024 11:00:00,2.575
30/04/2024 11:15:00,2.574
30/04/2024 11:30:00,2.574
30/04/2024 11:45:00,2.574
30/04/2024 12:00:00,2.574
30/04/2024 12:15:00,2.574
30/04/2024 12:30:00,2.573
30/04/2024 12:45:00,2.572
30/04/2024 13:00:00,2.572
30/04/2024 13:15:00,2.572
30/04/2024 13:30:00,2.571
30/04/2024 13:45:00,2.57
30/04/2024 14:00:00,2.57
30/04/2024 14:15:00,2.569
30/04/2024 14:30:00,2.571
30/04/2024 14:45:00,2.57
30/04/2024 15:00:00,2.568
30/04/2024 15:15:00,2.569
30/04/2024 15:30:00,2.567
30/04/2024 15:45:00,2.569
30/04/2024 16:00:00,2.567
30/04/2024 16:15:00,2.568
30/04/2024 16:30:00,2.566
30/04/2024 16:45:00,2.567
30/04/2024 17:00:00,2.565
30/04/2024 17:15:00,2.566
30/04/2024 17:30:00,2.566
30/04/2024 17:45:00,2.566
30/04/2024 18:00:00,2.564
30/04/2024 18:15:00,2.563
30/04/2024 18:30:00,2.564
30/04/2024 18:45:00,2.563
30/04/2024 19:00:00,2.562
30/04/2024 19:15:00,2.561
30/04/2024 19:30:00,2.563
30/04/2024 19:45:00,2.562
30/04/2024 20:00:00,2.561
30/04/2024 20:15:00,2.561
30/04/2024 20:30:00,2.561
30/04/2024 20:45:00,2.56
30/04/2024 21:00:00,2.56
30/04/2024 21:15:00,2.558
30/04/2024 21:30:00,2.56
30/04/2024 21:45:00,2.559
30/04/2024 22:00:00,2.559
30/04/2024 22:15:00,2.557
30/04/2024 22:30:00,2.558
30/04/2024 22:45:00,2.557
30/04/2024 23:00:00,2.556
30/04/2024 23:15:00,2.556
30/04/2024 23:30:00,2.555
30/04/2024 23:45:00,2.557
01/05/2024 00:00:00,2.555
01/05/2024 00:15:00,2.554
01/05/2024 00:30:00,2.553
01/05/2024 00:45:00,2.553
01/05/2024 01:00:00,2.553
01/05/2024 01:15:00,2.552
01/05/2024 01:30:00,2.55
01/05/2024 01:45:00,2.551
01/05/2024 02:00:00,2.55
01/05/2024 02:15:00,2.55
01/05/2024 02:30:00,2.551
01/05/2024 02:45:00,2.55
01/05/2024 03:00:00,2.549
01/05/2024 03:15:00,2.549
01/05/2024 03:30:00,2.549
01/05/2024 03:45:00,2.549
01/05/2024 04:00:00,2.55
01/05/2024 04:15:00,2.547
01/05/2024 04:30:00,2.546
01/05/2024 04:45:00,2.545
01/05/2024 05:00:00,2.546
01/05/2024 05:15:00,2.546
01/05/2024 05:30:00,2.545
01/05/2024 05:45:00,2.543
01/05/2024 06:00:00,2.544
01/05/2024 06:15:00,2.544
01/05/2024 06:30:00,2.543
01/05/2024 06:45:00,2.543
01/05/2024 07:00:00,2.543
01/05/2024 07:15:00,2.543
01/05/2024 07:30:00,2.542
01/05/2024 07:45:00,2.542
01/05/2024 08:00:00,2.542
01/05/2024 08:15:00,2.542
01/05/2024 08:30:00,2.543
01/05/2024 08:45:00,2.542
01/05/2024 09:00:00,2.541
01/05/2024 09:15:00,2.54
01/05/2024 09:30:00,2.54
01/05/2024 09:45:00,2.54
01/05/2024 10:00:00,2.54
01/05/2024 10:15:00,2.539
01/05/2024 10:30:00,2.539
01/05/2024 10:45:00,2.539
01/05/2024 11:00:00,2.539
01/05/2024 11:15:00,2.539
01/05/2024 11:30:00,2.539
01/05/2024 11:45:00,2.538
01/05/2024 12:00:00,2.539
01/05/2024 12:15:00,2.54
01/05/2024 12:30:00,2.539
01/05/2024 12:45:00,2.539
01/05/2024 13:00:00,2.539
01/05/2024 13:15:00,2.538
01/05/2024 13:30:00,2.539
01/05/2024 13:45:00,2.54
01/05/2024 14:00:00,2.538
01/05/2024 14:15:00,2.541
01/05/2024 14:30:00,2.539
01/05/2024 14:45:00,2.538
01/05/2024 15:00:00,2.538
01/05/2024 15:15:00,2.539
01/05/2024 15:30:00,2.538
01/05/2024 15:45:00,2.538
01/05/2024 16:00:00,2.538
01/05/2024 16:15:00,2.538
01/05/2024 16:30:00,2.539
01/05/2024 16:45:00,2.538
01/05/2024 17:00:00,2.537
01/05/2024 17:15:00,2.537
01/05/2024 17:30:00,2.538
01/05/2024 17:45:00,2.536
01/05/2024 18:00:00,2.538
01/05/2024 18:15:00,2.538
01/05/2024 18:30:00,2.539
01/05/2024 18:45:00,2.538
01/05/2024 19:00:00,2.537
01/05/2024 19:15:00,2.538
01/05/2024 19:30:00,2.538
01/05/2024 19:45:00,2.538
01/05/2024 20:00:00,2.537
01/05/2024 20:15:00,2.538
01/05/2024 20:30:00,2.537
01/05/2024 20:45:00,2.538
01/05/2024 21:00:00,2.538
01/05/2024 21:15:00,2.539
01/05/2024 21:30:00,2.539
01/05/2024 21:45:00,2.539
01/05/2024 22:00:00,2.539
01/05/2024 22:15:00,2.539
01/05/2024 22:30:00,2.539
01/05/2024 22:45:00,2.541
01/05/2024 23:00:00,2.539
01/05/2024 23:15:00,2.54
01/05/2024 23:30:00,2.539
01/05/2024 23:45:00,2.54
02/05/2024 00:00:00,2.54
02/05/2024 00:15:00,2.54
02/05/2024 00:30:00,2.541
02/05/2024 00:45:00,2.54
02/05/2024 01:00:00,2.539
02/05/2024 01:15:00,2.541
02/05/2024 01:30:00,2.541
02/05/2024 01:45:00,2.541
02/05/2024 02:00:00,2.541
02/05/2024 02:15:00,2.542
02/05/2024 02:30:00,2.541
02/05/2024 02:45:00,2.541
02/05/2024 03:00:00,2.541
02/05/2024 03:15:00,2.541
02/05/2024 03:30:00,2.54
02/05/2024 03:45:00,2.541
02/05/2024 04:00:00,2.54
02/05/2024 04:15:00,2.54
02/05/2024 04:30:00,2.539
02/05/2024 04:45:00,2.541
02/05/2024 05:00:00,2.54
02/05/2024 05:15:00,2.54
02/05/2024 05:30:00,2.539
02/05/2024 05:45:00,2.539
02/05/2024 06:00:00,2.54
02/05/2024 06:15:00,2.539
02/05/2024 06:30:00,2.54
02/05/2024 06:45:00,2.539
02/05/2024 07:00:00,2.538
02/05/2024 07:15:00,2.539
02/05/2024 07:30:00,2.539
02/05/2024 07:45:00,2.539
02/05/2024 08:00:00,2.539
02/05/2024 08:15:00,2.538
02/05/2024 08:30:00,2.54
02/05/2024 08:45:00,2.54
02/05/2024 09:00:00,2.539
02/05/2024 09:15:00,2.537
02/05/2024 09:30:00,2.538
02/05/2024 09:45:00,2.539
02/05/2024 10:00:00,2.54
02/05/2024 10:15:00,2.538
02/05/2024 10:30:00,2.538
02/05/2024 10:45:00,2.536
02/05/2024 11:00:00,2.539
02/05/2024 11:15:00,2.538
02/05/2024 11:30:00,2.537
02/05/2024 11:45:00,2.537
02/05/2024 12:00:00,2.538
02/05/2024 12:15:00,2.535
02/05/2024 12:30:00,2.536
02/05/2024 12:45:00,2.535
02/05/2024 13:00:00,2.534
02/05/2024 13:15:00,2.536
02/05/2024 13:30:00,2.535
02/05/2024 13:45:00,2.535
02/05/2024 14:00:00,2.534
02/05/2024 14:15:00,2.534
02/05/2024 14:30:00,2.536
02/05/2024 14:45:00,2.533
02/05/2024 15:00:00,2.533
02/05/2024 15:15:00,2.534
02/05/2024 15:30:00,2.534
02/05/2024 15:45:00,2.533
02/05/2024 16:00:00,2.533
02/05/2024 16:15:00,2.53
02/05/2024 16:30:00,2.531
02/05/2024 16:45:00,2.532
02/05/2024 17:00:00,2.53
02/05/2024 17:15:00,2.53
02/05/2024 17:30:00,2.53
02/05/2024 17:45:00,2.53
02/05/2024 18:00:00,2.529
02/05/2024 18:15:00,2.529
02/05/2024 18:30:00,2.529
02/05/2024 18:45:00,2.528
02/05/2024 19:00:00,2.528
02/05/2024 19:15:00,2.528
02/05/2024 19:30:00,2.528
02/05/2024 19:45:00,2.528
02/05/2024 20:00:00,2.528
02/05/2024 20:15:00,2.528
02/05/2024 20:30:00,2.527
02/05/2024 20:45:00,2.526
02/05/2024 21:00:00,2.527
02/05/2024 21:15:00,2.526
02/05/2024 21:30:00,2.525
02/05/2024 21:45:00,2.524
02/05/2024 22:00:00,2.524
02/05/2024 22:15:00,2.524
02/05/2024 22:30:00,2.524
02/05/2024 22:45:00,2.524
02/05/2024 23:00:00,2.524
02/05/2024 23:15:00,2.523
02/05/2024 23:30:00,2.523
02/05/2024 23:45:00,2.522
03/05/2024 00:00:00,2.523
03/05/2024 00:15:00,2.522
03/05/2024 00:30:00,2.521
03/05/2024 00:45:00,2.52
03/05/2024 01:00:00,2.519
03/05/2024 01:15:00,2.52
03/05/2024 01:30:00,2.519
03/05/2024 01:45:00,2.519
03/05/2024 02:00:00,2.519
03/05/2024 02:15:00,2.517
03/05/2024 02:30:00,2.517
03/05/2024 02:45:00,2.517
03/05/2024 03:00:00,2.516
03/05/2024 03:15:00,2.516
03/05/2024 03:30:00,2.515
03/05/2024 03:45:00,2.515
03/05/2024 04:00:00,2.515
03/05/2024 04:15:00,2.514
03/05/2024 04:30:00,2.515
03/05/2024 04:45:00,2.515
03/05/2024 05:00:00,2.512
03/05/2024 05:15:00,2.513
03/05/2024 05:30:00,2.513
03/05/2024 05:45:00,2.512
03/05/2024 06:00:00,2.511
03/05/2024 06:15:00,2.512
03/05/2024 06:30:00,2.512
03/05/2024 06:45:00,2.513
03/05/2024 07:00:00,2.511
03/05/2024 07:15:00,2.511
